This is the latest recevied weather packets stored in our database for station/object WB0OCV. If no packets are shown the sender has not sent any weather packets the latest 10 day(s).
| Time | Temp. | Humidity | Pressure | Rain* | Wind** | Luminosity | Snow |
|---|---|---|---|---|---|---|---|
| 1777868717 | 3.89° C | 87% | 1013.3 hPa | 0 mm | - | 0 W/m² | - |
| 1777868414 | 3.89° C | 88% | 1013.3 hPa | 0 mm | - | 0 W/m² | - |
| 1777868110 | 3.33° C | 90% | 1013.3 hPa | 0 mm | - | 0 W/m² | - |
| 1777867806 | 2.78° C | 92% | 1013.2 hPa | 0 mm | - | 0 W/m² | - |
| 1777867504 | 2.78° C | 92% | 1013 hPa | 0 mm | - | 0 W/m² | - |
| 1777867200 | 2.22° C | 92% | 1013.1 hPa | 0 mm | - | 0 W/m² | - |
| 1777866897 | 1.67° C | 91% | 1012.9 hPa | 0 mm | - | 0 W/m² | - |
| 1777866593 | 2.22° C | 91% | 1013.1 hPa | 0 mm | - | 0 W/m² | - |
| 1777866291 | 2.22° C | 90% | 1013.1 hPa | 0 mm | - | 0 W/m² | - |
| 1777865988 | 2.22° C | 90% | 1013 hPa | 0 mm | - | 0 W/m² | - |
| 1777865686 | 2.22° C | 89% | 1013 hPa | 0 mm | - | 0 W/m² | - |
| 1777865383 | 2.78° C | 89% | 1012.7 hPa | 0 mm | - | 0 W/m² | - |
| 1777865080 | 2.78° C | 88% | 1012.9 hPa | 0 mm | - | 0 W/m² | - |
| 1777864777 | 2.78° C | 88% | 1012.8 hPa | 0 mm | - | 0 W/m² | - |
| 1777864474 | 2.78° C | 89% | 1013 hPa | 0 mm | - | 0 W/m² | - |
| 1777864170 | 2.22° C | 89% | 1012.8 hPa | 0 mm | - | 0 W/m² | - |
| 1777863867 | 2.78° C | 89% | 1012.8 hPa | 0 mm | - | 0 W/m² | - |
| 1777863563 | 2.78° C | 89% | 1012.8 hPa | 0 mm | - | 0 W/m² | - |
| 1777863260 | 2.78° C | 88% | 1012.9 hPa | 0 mm | - | 0 W/m² | - |
| 1777862957 | 2.78° C | 87% | 1012.9 hPa | 0 mm | - | 0 W/m² | - |
| 1777862654 | 2.78° C | 86% | 1012.9 hPa | 0 mm | - | 0 W/m² | - |
| 1777862352 | 2.78° C | 86% | 1012.8 hPa | 0 mm | - | 0 W/m² | - |
| 1777862048 | 2.78° C | 84% | 1012.8 hPa | 0 mm | - | 0 W/m² | - |
| 1777861743 | 3.33° C | 84% | 1012.9 hPa | 0 mm | - | 0 W/m² | - |
| 1777861440 | 3.33° C | 82% | 1012.9 hPa | 0 mm | - | 0 W/m² | - |
* Rain latest hour (hover to see other rain measurements)
** Current wind speed in m/s (hover to see current wind gust speed)